| time (UTC) | temp F | wind direction | speed knots | gust knots | rain 1hr in | rain 24hr in | rain mn in | humidity % | barometer mb |
| 20260505152324 | 86 | 104 | 0.9 | 0.9 | 0.00 | 0.00 | 0.06 | 77 | 1008.0 |
| 20260505151823 | 86 | 136 | 3.5 | 4.3 | 0.00 | 0.00 | 0.06 | 77 | 1008.0 |
| 20260505151324 | 86 | 55 | 0.9 | 1.7 | 0.00 | 0.00 | 0.06 | 76 | 1007.0 |
| 20260505150825 | 86 | 105 | 1.7 | 2.6 | 0.00 | 0.00 | 0.06 | 76 | 1007.0 |
| 20260505150326 | 86 | 121 | 2.6 | 2.6 | 0.00 | 0.00 | 0.06 | 76 | 1007.0 |
| 20260505140324 | 87 | 99 | 0.9 | 0.9 | 0.00 | 0.00 | 0.06 | 73 | 1007.0 |
| 20260505124823 | 89 | 86 | 1.7 | 1.7 | 0.00 | 0.00 | 0.06 | 69 | 1006.0 |
| 20260505124323 | 89 | 67 | 3.5 | 5.2 | 0.00 | 0.00 | 0.06 | 68 | 1006.0 |
| 20260505123823 | 89 | 133 | 4.3 | 6.1 | 0.00 | 0.00 | 0.06 | 68 | 1006.0 |
| 20260505123323 | 90 | 140 | 1.7 | 2.6 | 0.00 | 0.00 | 0.06 | 68 | 1005.0 |
| 20260505122822 | 90 | 65 | 2.6 | 4.3 | 0.00 | 0.00 | 0.06 | 68 | 1006.0 |
| 20260505122323 | 90 | 68 | 3.5 | 4.3 | 0.00 | 0.00 | 0.06 | 68 | 1006.0 |
| 20260505121822 | 90 | 131 | 1.7 | 1.7 | 0.00 | 0.00 | 0.06 | 68 | 1005.0 |
| 20260505121323 | 90 | 103 | 4.3 | 5.2 | 0.00 | 0.00 | 0.06 | 67 | 1005.0 |
| 20260505120822 | 91 | 96 | 2.6 | 5.2 | 0.00 | 0.00 | 0.06 | 67 | 1006.0 |
| 20260505120325 | 91 | 69 | 3.5 | 6.1 | 0.00 | 0.00 | 0.06 | 67 | 1005.0 |
| 20260505115822 | 91 | 77 | 3.5 | 6.1 | 0.00 | 0.00 | 0.06 | 66 | 1005.0 |
| 20260505115322 | 91 | 94 | 6.1 | 8.7 | 0.00 | 0.00 | 0.06 | 66 | 1005.0 |
| 20260505114824 | 92 | 56 | 2.6 | 4.3 | 0.00 | 0.00 | 0.06 | 66 | 1005.0 |
| 20260505114323 | 93 | 78 | 0.9 | 0.9 | 0.00 | 0.00 | 0.06 | 62 | 1005.0 |
| 20260505113822 | 93 | 145 | 2.6 | 5.2 | 0.00 | 0.00 | 0.06 | 62 | 1005.0 |
| 20260505113323 | 93 | 96 | 1.7 | 2.6 | 0.00 | 0.00 | 0.06 | 62 | 1005.0 |
| 20260505112822 | 93 | 129 | 0.9 | 0.9 | 0.00 | 0.00 | 0.06 | 63 | 1005.0 |
| 20260505112323 | 93 | 139 | 0.9 | 1.7 | 0.00 | 0.00 | 0.06 | 62 | 1005.0 |
| 20260505111822 | 93 | 112 | 2.6 | 2.6 | 0.00 | 0.00 | 0.06 | 62 | 1005.0 |
| 20260505111322 | 93 | 156 | 2.6 | 2.6 | 0.00 | 0.00 | 0.06 | 61 | 1005.0 |
| 20260505110823 | 94 | 88 | 1.7 | 1.7 | 0.00 | 0.00 | 0.06 | 61 | 1005.0 |
| 20260505110323 | 94 | 98 | 0.0 | 0.0 | 0.00 | 0.00 | 0.06 | 61 | 1005.0 |
| 20260505101824 | 98 | 132 | 2.6 | 2.6 | 0.00 | 0.00 | 0.06 | 53 | 1005.0 |
| 20260505101323 | 96 | 147 | 0.9 | 0.9 | 0.00 | 0.00 | 0.06 | 51 | 1005.0 |
| 20260505100822 | 97 | 156 | 2.6 | 2.6 | 0.00 | 0.00 | 0.06 | 51 | 1005.0 |
| 20260505100322 | 97 | 164 | 0.9 | 1.7 | 0.00 | 0.00 | 0.06 | 51 | 1005.0 |
| 20260505095823 | 97 | 115 | 2.6 | 2.6 | 0.00 | 0.00 | 0.06 | 50 | 1005.0 |
| 20260505095322 | 97 | 192 | 2.6 | 2.6 | 0.00 | 0.00 | 0.06 | 51 | 1005.0 |
| 20260505094822 | 97 | 153 | 1.7 | 1.7 | 0.00 | 0.00 | 0.06 | 51 | 1005.0 |
| 20260505094322 | 97 | 113 | 0.9 | 1.7 | 0.00 | 0.00 | 0.06 | 50 | 1005.0 |
| 20260505093823 | 97 | 163 | 0.0 | 0.9 | 0.00 | 0.00 | 0.06 | 51 | 1005.0 |
| 20260505093325 | 97 | 187 | 2.6 | 2.6 | 0.00 | 0.00 | 0.06 | 51 | 1005.0 |
| 20260505092822 | 97 | 88 | 0.9 | 1.7 | 0.00 | 0.00 | 0.06 | 52 | 1005.0 |
| 20260505092323 | 97 | 148 | 3.5 | 4.3 | 0.00 | 0.00 | 0.06 | 52 | 1005.0 |
| 20260505091822 | 97 | 151 | 1.7 | 1.7 | 0.00 | 0.00 | 0.06 | 53 | 1006.0 |
| 20260505091322 | 98 | 149 | 1.7 | 1.7 | 0.00 | 0.00 | 0.06 | 53 | 1005.0 |
| 20260505090824 | 99 | 139 | 0.9 | 1.7 | 0.00 | 0.00 | 0.06 | 50 | 1006.0 |
| 20260505090325 | 98 | 147 | 0.9 | 0.9 | 0.00 | 0.00 | 0.06 | 53 | 1006.0 |
| 20260505085823 | 98 | 194 | 2.6 | 2.6 | 0.00 | 0.00 | 0.06 | 51 | 1006.0 |
| 20260505085322 | 98 | 137 | 0.9 | 0.9 | 0.00 | 0.00 | 0.06 | 52 | 1006.0 |
| 20260505084822 | 98 | 126 | 0.9 | 0.9 | 0.00 | 0.00 | 0.06 | 52 | 1006.0 |
| 20260505084323 | 99 | 137 | 0.9 | 1.7 | 0.00 | 0.00 | 0.06 | 50 | 1006.0 |
| 20260505083823 | 99 | 93 | 0.0 | 0.9 | 0.00 | 0.00 | 0.06 | 49 | 1006.0 |
| 20260505083322 | 98 | 154 | 1.7 | 2.6 | 0.00 | 0.00 | 0.06 | 50 | 1006.0 |
| 20260505082823 | 98 | 179 | 1.7 | 1.7 | 0.00 | 0.00 | 0.06 | 52 | 1006.0 |
| 20260505082322 | 98 | 166 | 1.7 | 1.7 | 0.00 | 0.00 | 0.06 | 53 | 1006.0 |
| 20260505081822 | 97 | 153 | 1.7 | 1.7 | 0.00 | 0.00 | 0.06 | 52 | 1006.0 |
| 20260505081322 | 100 | 211 | 0.9 | 1.7 | 0.00 | 0.00 | 0.06 | 51 | 1006.0 |
| 20260505080823 | 98 | 131 | 0.9 | 0.9 | 0.00 | 0.00 | 0.06 | 51 | 1006.0 |
| 20260505080322 | 98 | 40 | 0.9 | 1.7 | 0.00 | 0.00 | 0.06 | 52 | 1006.0 |
| 20260505075822 | 97 | 141 | 1.7 | 1.7 | 0.00 | 0.00 | 0.06 | 52 | 1006.0 |
| 20260505075322 | 98 | 216 | 2.6 | 5.2 | 0.00 | 0.00 | 0.06 | 52 | 1007.0 |
| 20260505074826 | 96 | 111 | 0.9 | 0.9 | 0.00 | 0.00 | 0.06 | 55 | 1007.0 |
| 20260505074322 | 97 | 180 | 2.6 | 2.6 | 0.00 | 0.00 | 0.06 | 54 | 1007.0 |
| 20260505073822 | 98 | 110 | 0.9 | 0.9 | 0.00 | 0.00 | 0.06 | 53 | 1007.0 |
| 20260505073322 | 97 | 137 | 0.9 | 0.9 | 0.00 | 0.00 | 0.06 | 55 | 1007.0 |
| 20260505072822 | 97 | 162 | 2.6 | 2.6 | 0.00 | 0.00 | 0.06 | 54 | 1007.0 |
| 20260505072322 | 96 | 125 | 0.0 | 0.0 | 0.00 | 0.00 | 0.06 | 54 | 1007.0 |
| 20260505071822 | 97 | 140 | 1.7 | 1.7 | 0.00 | 0.00 | 0.06 | 54 | 1007.0 |
| 20260505071322 | 97 | 129 | 1.7 | 1.7 | 0.00 | 0.00 | 0.06 | 54 | 1007.0 |
| 20260505070822 | 97 | 159 | 1.7 | 2.6 | 0.00 | 0.00 | 0.06 | 56 | 1007.0 |
| 20260505070322 | 97 | 123 | 0.0 | 0.9 | 0.00 | 0.00 | 0.06 | 54 | 1007.0 |
| 20260505065822 | 97 | 175 | 0.9 | 0.9 | 0.00 | 0.00 | 0.06 | 56 | 1007.0 |
| 20260505065322 | 98 | 125 | 0.9 | 0.9 | 0.00 | 0.00 | 0.06 | 55 | 1007.0 |
| 20260505064822 | 97 | 151 | 0.9 | 0.9 | 0.00 | 0.00 | 0.06 | 54 | 1008.0 |
| 20260505064323 | 96 | 91 | 0.9 | 0.9 | 0.00 | 0.00 | 0.06 | 55 | 1008.0 |
| 20260505063824 | 94 | 101 | 0.9 | 0.9 | 0.00 | 0.00 | 0.06 | 56 | 1008.0 |
| 20260505063322 | 95 | 173 | 1.7 | 1.7 | 0.00 | 0.00 | 0.06 | 58 | 1008.0 |
| 20260505062824 | 95 | 186 | 1.7 | 1.7 | 0.00 | 0.00 | 0.06 | 59 | 1008.0 |
| 20260505062322 | 95 | 114 | 0.9 | 0.9 | 0.00 | 0.00 | 0.06 | 57 | 1008.0 |
| 20260505061822 | 95 | 76 | 0.9 | 0.9 | 0.00 | 0.00 | 0.06 | 57 | 1008.0 |
| 20260505061322 | 95 | 96 | 1.7 | 1.7 | 0.00 | 0.00 | 0.06 | 57 | 1008.0 |
| 20260505060824 | 95 | 96 | 0.9 | 0.9 | 0.00 | 0.00 | 0.06 | 57 | 1008.0 |
| 20260505060323 | 94 | 135 | 0.0 | 0.9 | 0.00 | 0.00 | 0.06 | 59 | 1008.0 |
| 20260505055823 | 94 | 149 | 1.7 | 1.7 | 0.00 | 0.00 | 0.06 | 57 | 1008.0 |
| 20260505055323 | 94 | 210 | 0.9 | 0.9 | 0.00 | 0.00 | 0.06 | 57 | 1009.0 |
| 20260505054824 | 93 | 124 | 0.0 | 0.0 | 0.00 | 0.00 | 0.06 | 60 | 1009.0 |
| 20260505054323 | 93 | 116 | 0.9 | 0.9 | 0.00 | 0.00 | 0.06 | 60 | 1009.0 |
| 20260505053822 | 92 | 71 | 1.7 | 1.7 | 0.00 | 0.00 | 0.06 | 62 | 1009.0 |
| 20260505053322 | 91 | 133 | 1.7 | 1.7 | 0.00 | 0.00 | 0.06 | 63 | 1009.0 |
| 20260505052822 | 90 | 160 | 0.9 | 1.7 | 0.00 | 0.00 | 0.06 | 64 | 1008.0 |
| 20260505052323 | 91 | 326 | 2.6 | 2.6 | 0.00 | 0.00 | 0.06 | 63 | 1009.0 |
| 20260505051822 | 90 | 49 | 0.9 | 1.7 | 0.00 | 0.00 | 0.06 | 67 | 1009.0 |
| 20260505051322 | 89 | 130 | 0.0 | 0.9 | 0.00 | 0.00 | 0.06 | 68 | 1009.0 |
| 20260505050824 | 89 | 134 | 0.9 | 1.7 | 0.00 | 0.00 | 0.06 | 68 | 1009.0 |
| 20260505050323 | 89 | 183 | 1.7 | 2.6 | 0.00 | 0.00 | 0.06 | 67 | 1009.0 |
| 20260505041322 | 86 | 109 | 0.9 | 0.9 | 0.00 | 0.00 | 0.06 | 72 | 1009.0 |
| 20260505040823 | 87 | 155 | 2.6 | 2.6 | 0.00 | 0.00 | 0.06 | 70 | 1010.0 |
| 20260505040322 | 86 | 144 | 3.5 | 4.3 | 0.00 | 0.00 | 0.06 | 71 | 1010.0 |
| 20260505035822 | 86 | 127 | 0.0 | 0.0 | 0.00 | 0.00 | 0.06 | 73 | 1009.0 |
| 20260505035324 | 84 | 155 | 2.6 | 2.6 | 0.00 | 0.00 | 0.06 | 74 | 1009.0 |
| 20260505034824 | 84 | 189 | 0.9 | 0.9 | 0.00 | 0.00 | 0.06 | 74 | 1010.0 |
| 20260505034323 | 84 | 126 | 0.9 | 1.7 | 0.00 | 0.00 | 0.06 | 75 | 1010.0 |
| 20260505033822 | 84 | 149 | 2.6 | 2.6 | 0.00 | 0.00 | 0.06 | 75 | 1009.0 |
| 20260505033323 | 83 | 123 | 0.9 | 0.9 | 0.00 | 0.00 | 0.06 | 77 | 1009.0 |
| 20260505032823 | 82 | 109 | 0.0 | 0.9 | 0.00 | 0.00 | 0.06 | 77 | 1009.0 |
| 20260505032322 | 82 | 131 | 0.9 | 1.7 | 0.00 | 0.00 | 0.06 | 78 | 1009.0 |
| 20260505031822 | 81 | 136 | 0.9 | 0.9 | 0.00 | 0.00 | 0.06 | 80 | 1009.0 |
| 20260505031322 | 81 | 133 | 0.0 | 0.9 | 0.00 | 0.00 | 0.06 | 81 | 1009.0 |
| 20260505030822 | 80 | 127 | 1.7 | 1.7 | 0.00 | 0.00 | 0.06 | 82 | 1009.0 |
| 20260505030325 | 80 | 187 | 0.9 | 1.7 | 0.00 | 0.00 | 0.06 | 82 | 1009.0 |
| 20260505025824 | 79 | 150 | 0.9 | 1.7 | 0.00 | 0.00 | 0.06 | 82 | 1009.0 |
| 20260505025324 | 79 | 136 | 0.9 | 0.9 | 0.00 | 0.00 | 0.06 | 83 | 1009.0 |
| 20260505024824 | 79 | 123 | 0.0 | 0.0 | 0.00 | 0.00 | 0.06 | 85 | 1009.0 |
| 20260505024324 | 78 | 131 | 0.0 | 0.0 | 0.00 | 0.00 | 0.06 | 85 | 1009.0 |
| 20260505023824 | 78 | 148 | 0.9 | 0.9 | 0.00 | 0.00 | 0.06 | 86 | 1009.0 |
| 20260505023323 | 78 | 188 | 0.9 | 1.7 | 0.00 | 0.00 | 0.06 | 86 | 1009.0 |
| 20260505022825 | 78 | 128 | 0.0 | 0.0 | 0.00 | 0.00 | 0.06 | 86 | 1009.0 |
| 20260505022324 | 78 | 154 | 0.9 | 2.6 | 0.00 | 0.00 | 0.06 | 86 | 1009.0 |
| 20260505021824 | 77 | 126 | 0.9 | 1.7 | 0.00 | 0.00 | 0.06 | 87 | 1009.0 |
| 20260505021324 | 77 | 139 | 0.9 | 0.9 | 0.00 | 0.00 | 0.06 | 87 | 1009.0 |
| 20260505020823 | 77 | 141 | 0.9 | 1.7 | 0.00 | 0.00 | 0.06 | 87 | 1009.0 |
| 20260505020322 | 77 | 123 | 1.7 | 1.7 | 0.00 | 0.00 | 0.06 | 87 | 1009.0 |
| 20260505015822 | 77 | 135 | 0.0 | 0.9 | 0.00 | 0.00 | 0.06 | 87 | 1009.0 |
| 20260505015322 | 77 | 141 | 1.7 | 1.7 | 0.00 | 0.00 | 0.06 | 87 | 1009.0 |
| 20260505014822 | 77 | 125 | 0.9 | 0.9 | 0.00 | 0.00 | 0.06 | 87 | 1009.0 |
| 20260505014324 | 77 | 132 | 0.9 | 0.9 | 0.00 | 0.00 | 0.06 | 87 | 1009.0 |
| 20260505013822 | 77 | 142 | 0.9 | 0.9 | 0.00 | 0.00 | 0.06 | 86 | 1009.0 |
| 20260505013323 | 77 | 131 | 0.9 | 0.9 | 0.00 | 0.00 | 0.06 | 86 | 1009.0 |
| 20260505012822 | 77 | 136 | 0.9 | 0.9 | 0.00 | 0.00 | 0.06 | 86 | 1008.0 |
| 20260505012322 | 77 | 135 | 0.9 | 1.7 | 0.00 | 0.00 | 0.06 | 85 | 1009.0 |
| 20260505011822 | 77 | 140 | 0.9 | 0.9 | 0.00 | 0.00 | 0.06 | 85 | 1008.0 |
| 20260505011322 | 77 | 139 | 0.9 | 0.9 | 0.00 | 0.00 | 0.06 | 85 | 1009.0 |
| 20260505010823 | 77 | 169 | 0.9 | 1.7 | 0.00 | 0.00 | 0.06 | 84 | 1008.0 |
| 20260505010323 | 77 | 136 | 0.0 | 0.0 | 0.00 | 0.00 | 0.06 | 84 | 1009.0 |
| 20260505005823 | 77 | 132 | 0.9 | 1.7 | 0.00 | 0.00 | 0.06 | 84 | 1008.0 |
| 20260505005325 | 77 | 118 | 0.0 | 0.0 | 0.00 | 0.00 | 0.06 | 84 | 1008.0 |
| 20260505004823 | 77 | 125 | 0.0 | 0.9 | 0.00 | 0.00 | 0.06 | 83 | 1008.0 |
| 20260505004322 | 77 | 123 | 0.0 | 0.0 | 0.00 | 0.00 | 0.06 | 83 | 1008.0 |
| 20260505003823 | 77 | 125 | 0.0 | 0.0 | 0.00 | 0.00 | 0.06 | 83 | 1008.0 |
| 20260505003322 | 77 | 136 | 0.0 | 0.9 | 0.00 | 0.00 | 0.06 | 83 | 1008.0 |
| 20260505002822 | 77 | 142 | 0.0 | 0.0 | 0.00 | 0.00 | 0.06 | 83 | 1008.0 |
| 20260505002322 | 77 | 166 | 1.7 | 2.6 | 0.00 | 0.00 | 0.06 | 82 | 1008.0 |
| 20260505001823 | 77 | 265 | 1.7 | 1.7 | 0.00 | 0.00 | 0.06 | 82 | 1008.0 |
| 20260505001322 | 77 | 165 | 1.7 | 1.7 | 0.00 | 0.00 | 0.06 | 83 | 1008.0 |
| 20260505000822 | 77 | 7 | 1.7 | 1.7 | 0.00 | 0.00 | 0.06 | 82 | 1007.0 |
| 20260505000322 | 77 | 65 | 1.7 | 1.7 | 0.00 | 0.00 | 0.06 | 83 | 1007.0 |
| 20260504235822 | 77 | 90 | 0.9 | 1.7 | 0.00 | 0.00 | 0.06 | 83 | 1007.0 |
| 20260504235322 | 77 | 92 | 0.9 | 1.7 | 0.00 | 0.00 | 0.06 | 84 | 1007.0 |
| 20260504234823 | 76 | 130 | 0.9 | 0.9 | 0.00 | 0.00 | 0.06 | 85 | 1007.0 |
| 20260504234322 | 76 | 224 | 0.9 | 0.9 | 0.00 | 0.00 | 0.06 | 86 | 1007.0 |
| 20260504233822 | 76 | 272 | 1.7 | 1.7 | 0.00 | 0.00 | 0.06 | 86 | 1007.0 |
| 20260504233323 | 76 | 98 | 1.7 | 1.7 | 0.00 | 0.00 | 0.06 | 87 | 1007.0 |
| 20260504232822 | 76 | 95 | 1.7 | 1.7 | 0.00 | 0.00 | 0.06 | 88 | 1007.0 |
| 20260504232323 | 75 | 349 | 1.7 | 1.7 | 0.00 | 0.00 | 0.06 | 89 | 1007.0 |
| 20260504231822 | 75 | 332 | 2.6 | 2.6 | 0.00 | 0.00 | 0.06 | 90 | 1007.0 |
| 20260504231324 | 75 | 84 | 1.7 | 1.7 | 0.00 | 0.00 | 0.06 | 90 | 1007.0 |
| 20260504230822 | 75 | 110 | 2.6 | 2.6 | 0.00 | 0.00 | 0.06 | 90 | 1007.0 |
| 20260504230323 | 75 | 95 | 1.7 | 1.7 | 0.00 | 0.00 | 0.06 | 90 | 1007.0 |
| 20260504225822 | 75 | 43 | 0.9 | 1.7 | 0.00 | 0.00 | 0.06 | 90 | 1007.0 |
| 20260504225323 | 75 | 80 | 0.9 | 0.9 | 0.00 | 0.00 | 0.06 | 89 | 1007.0 |
| 20260504224823 | 75 | 85 | 0.9 | 0.9 | 0.00 | 0.00 | 0.06 | 89 | 1007.0 |
| 20260504224327 | 75 | 116 | 0.9 | 0.9 | 0.00 | 0.00 | 0.06 | 89 | 1007.0 |
| 20260504223822 | 75 | 143 | 0.9 | 0.9 | 0.00 | 0.00 | 0.06 | 88 | 1007.0 |
| 20260504223322 | 75 | 121 | 0.0 | 0.9 | 0.00 | 0.00 | 0.06 | 88 | 1007.0 |
| 20260504222822 | 75 | 130 | 0.0 | 0.0 | 0.00 | 0.00 | 0.06 | 88 | 1007.0 |
| 20260504222322 | 76 | 140 | 0.9 | 0.9 | 0.00 | 0.00 | 0.06 | 88 | 1007.0 |
| 20260504221822 | 76 | 154 | 0.9 | 0.9 | 0.00 | 0.00 | 0.06 | 89 | 1007.0 |
| 20260504221322 | 76 | 161 | 0.9 | 0.9 | 0.00 | 0.00 | 0.06 | 90 | 1007.0 |
| 20260504220823 | 75 | 88 | 0.9 | 0.9 | 0.00 | 0.00 | 0.06 | 90 | 1007.0 |
| 20260504220322 | 75 | 128 | 0.0 | 0.0 | 0.00 | 0.00 | 0.06 | 90 | 1007.0 |
| 20260504215822 | 75 | 127 | 0.0 | 0.0 | 0.00 | 0.00 | 0.06 | 90 | 1007.0 |
| 20260504215324 | 75 | 121 | 0.0 | 0.0 | 0.00 | 0.00 | 0.06 | 90 | 1007.0 |
| 20260504214822 | 75 | 119 | 0.0 | 0.0 | 0.00 | 0.00 | 0.06 | 90 | 1007.0 |
| 20260504214323 | 75 | 147 | 0.9 | 1.7 | 0.00 | 0.00 | 0.06 | 90 | 1007.0 |
| 20260504213822 | 75 | 152 | 0.9 | 1.7 | 0.00 | 0.00 | 0.06 | 90 | 1007.0 |
| 20260504213322 | 75 | 129 | 0.0 | 0.0 | 0.00 | 0.00 | 0.06 | 91 | 1007.0 |
| 20260504212823 | 75 | 134 | 0.9 | 0.9 | 0.00 | 0.00 | 0.06 | 90 | 1007.0 |
| 20260504212322 | 75 | 119 | 0.0 | 0.0 | 0.00 | 0.00 | 0.06 | 90 | 1007.0 |
| 20260504211823 | 75 | 136 | 0.9 | 0.9 | 0.00 | 0.00 | 0.06 | 90 | 1007.0 |
| 20260504211322 | 75 | 124 | 0.0 | 0.0 | 0.07 | 0.00 | 0.06 | 89 | 1007.0 |
| 20260504210822 | 75 | 114 | 0.0 | 0.9 | 0.07 | 0.00 | 0.06 | 90 | 1007.0 |
| 20260504210322 | 75 | 129 | 0.0 | 0.9 | 0.00 | 0.00 | 0.05 | 90 | 1007.0 |
| 20260504205822 | 75 | 354 | 0.9 | 1.7 | 0.05 | 0.00 | 0.05 | 90 | 1008.0 |
| 20260504205322 | 75 | 287 | 1.7 | 1.7 | 0.12 | 0.00 | 0.05 | 90 | 1008.0 |
| 20260504204824 | 75 | 149 | 2.6 | 2.6 | 0.07 | 0.00 | 0.04 | 90 | 1008.0 |
| 20260504204322 | 75 | 116 | 0.0 | 0.9 | 0.07 | 0.00 | 0.04 | 90 | 1008.0 |
| 20260504203822 | 75 | 176 | 0.9 | 1.7 | 0.00 | 0.00 | 0.03 | 90 | 1008.0 |
| 20260504203322 | 75 | 279 | 1.7 | 1.7 | 0.05 | 0.00 | 0.03 | 89 | 1008.0 |
| 20260504202822 | 75 | 178 | 0.9 | 1.7 | 0.05 | 0.00 | 0.03 | 89 | 1008.0 |
| 20260504202324 | 75 | 135 | 0.9 | 0.9 | 0.00 | 0.00 | 0.02 | 89 | 1009.0 |
| 20260504201822 | 75 | 173 | 0.9 | 0.9 | 0.00 | 0.00 | 0.02 | 89 | 1008.0 |
| 20260504201322 | 75 | 186 | 0.9 | 1.7 | 0.00 | 0.00 | 0.02 | 89 | 1008.0 |
| 20260504200825 | 75 | 105 | 0.9 | 1.7 | 0.00 | 0.00 | 0.02 | 88 | 1008.0 |
| 20260504200322 | 75 | 130 | 0.9 | 0.9 | 0.00 | 0.00 | 0.02 | 88 | 1008.0 |
| 20260504195822 | 75 | 107 | 0.9 | 0.9 | 0.00 | 0.00 | 0.02 | 88 | 1008.0 |
| 20260504195323 | 75 | 72 | 0.9 | 1.7 | 0.00 | 0.00 | 0.02 | 88 | 1008.0 |
| 20260504194822 | 75 | 159 | 0.9 | 1.7 | 0.00 | 0.00 | 0.02 | 88 | 1008.0 |
| 20260504194324 | 75 | 122 | 0.9 | 0.9 | 0.07 | 0.00 | 0.02 | 88 | 1009.0 |
| 20260504193824 | 75 | 128 | 0.9 | 0.9 | 0.07 | 0.00 | 0.02 | 87 | 1009.0 |
| 20260504193323 | 75 | 139 | 0.9 | 1.7 | 0.00 | 0.00 | 0.01 | 87 | 1009.0 |
| 20260504192822 | 75 | 358 | 1.7 | 1.7 | 0.00 | 0.00 | 0.01 | 86 | 1009.0 |
| 20260504192323 | 75 | 33 | 0.9 | 1.7 | 0.00 | 0.00 | 0.01 | 86 | 1009.0 |
| 20260504191824 | 75 | 118 | 0.9 | 0.9 | 0.00 | 0.00 | 0.01 | 86 | 1009.0 |
| 20260504190835 | 76 | 136 | 1.7 | 1.7 | 0.05 | 0.00 | 0.01 | 85 | 1009.0 |
| 20260504190322 | 77 | 163 | 0.9 | 0.9 | 0.05 | 0.00 | 0.01 | 83 | 1009.0 |
| 20260504185824 | 77 | 119 | 0.9 | 1.7 | 0.00 | 0.00 | 0.00 | 82 | 1009.0 |
| 20260504185322 | 76 | 92 | 1.7 | 1.7 | 0.00 | 0.00 | 0.00 | 83 | 1009.0 |
| 20260504184822 | 76 | 109 | 0.9 | 0.9 | 0.00 | 0.00 | 0.00 | 82 | 1009.0 |
| 20260504184322 | 77 | 49 | 2.6 | 2.6 | 0.00 | 0.00 | 0.00 | 81 | 1009.0 |
| 20260504183822 | 77 | 261 | 4.3 | 5.2 | 0.00 | 0.00 | 0.00 | 80 | 1010.0 |
| 20260504183323 | 78 | 338 | 4.3 | 6.1 | 0.00 | 0.00 | 0.00 | 80 | 1010.0 |
| 20260504182822 | 78 | 307 | 2.6 | 4.3 | 0.00 | 0.00 | 0.00 | 81 | 1009.0 |
| 20260504182331 | 78 | 352 | 3.5 | 4.3 | 0.00 | 0.00 | 0.00 | 81 | 1009.0 |
| 20260504181823 | 77 | 54 | 1.7 | 2.6 | 0.00 | 0.00 | 0.00 | 82 | 1009.0 |
| 20260504181323 | 77 | 354 | 1.7 | 2.6 | 0.00 | 0.00 | 0.00 | 81 | 1009.0 |
| 20260504180825 | 77 | 56 | 2.6 | 2.6 | 0.00 | 0.00 | 0.00 | 81 | 1009.0 |
| 20260504180324 | 77 | 340 | 3.5 | 5.2 | 0.00 | 0.00 | 0.00 | 82 | 1009.0 |
| 20260504175822 | 76 | 3 | 5.2 | 7.0 | 0.00 | 0.00 | 0.00 | 83 | 1009.0 |
| 20260504175324 | 76 | 41 | 2.6 | 2.6 | 0.00 | 0.00 | 0.00 | 85 | 1009.0 |
| 20260504174823 | 76 | 16 | 2.6 | 2.6 | 0.00 | 0.00 | 0.00 | 85 | 1009.0 |
| 20260504174322 | 77 | 352 | 3.5 | 5.2 | 0.00 | 0.00 | 0.00 | 83 | 1009.0 |
| 20260504173822 | 77 | 283 | 2.6 | 2.6 | 0.00 | 0.00 | 0.00 | 82 | 1009.0 |
| 20260504173322 | 77 | 96 | 1.7 | 2.6 | 0.00 | 0.00 | 0.00 | 81 | 1009.0 |
| 20260504172823 | 78 | 245 | 4.3 | 6.1 | 0.00 | 0.00 | 0.00 | 78 | 1009.0 |
| 20260504172325 | 78 | 330 | 6.1 | 7.8 | 0.00 | 0.00 | 0.00 | 76 | 1009.0 |
| 20260504171823 | 78 | 3 | 3.5 | 4.3 | 0.00 | 0.00 | 0.00 | 78 | 1009.0 |
| 20260504171322 | 80 | 14 | 4.3 | 5.2 | 0.00 | 0.00 | 0.00 | 74 | 1009.0 |
| 20260504170824 | 80 | 171 | 2.6 | 4.3 | 0.00 | 0.00 | 0.00 | 74 | 1009.0 |
| 20260504170322 | 80 | 315 | 4.3 | 6.1 | 0.00 | 0.00 | 0.00 | 75 | 1009.0 |
| 20260504160322 | 87 | 136 | 0.9 | 0.9 | 0.00 | 0.00 | 0.00 | 78 | 1008.0 |